Вернуться в каталог

ONEWEB-0598

АктивенСвязьPO
NORAD 55154·PAYLOAD·🇬🇧 United Kingdom

Запущен Jan 10, 2023 с Cape Canaveral Space Force Station

Loading…

Ближайшие Пролёты (ближайшие 24 часа)

TLE

СвежийSource: CelesTrak SupGP

Эпоха: Sep 14, 2026, 14:28 UTC

1 55154C 23004Q   26257.60330278  .00001588  00000+0  44870-2 0  2573
2 55154  87.8982   3.2911 0001260  82.9973  26.6460 13.11418984    12

Отслеживайте ONEWEB-0598 в реальном времени с AllMySat

Download on the App Store